カタログに戻る

STRIX-4

運用中科学VLEO
NORAD 60352·PAYLOAD·🇯🇵 Japan

打ち上げ Aug 2, 2024 から Rocket Lab Launch Complex 1

Loading…

次のパス (今後24時間)

TLE

最新Source: Space-Track

元期: Sep 14, 2026, 15:03 UTC

1 60352U 24137A   26257.62725405  .00015901  00000-0  46100-3 0  9996
2 60352  43.0142 135.1535 0017039 179.8418 180.2444 15.35175783117752

AllMySatでSTRIX-4をリアルタイム追跡

Download on the App Store